Wadesboro, NC

3:23 AM EST on February 26, 2017 (GMT -0500)
Anson County

Weather History for KAFP - May, 2014

Change the Weather History Date:

Friday, May 16, 2014

  Actual Average (KCLT) Record (KCLT)
Temperature  
Mean Temperature 62 °F -  
Max Temperature 72 °F 79 °F 94 °F (1941)
Min Temperature 53 °F 57 °F 42 °F (1978)
Degree Days  
Heating Degree Days 2    
Growing Degree Days 12 (Base 50)    
Moisture  
Dew Point 48 °F    
Average Humidity 62    
Maximum Humidity 97    
Minimum Humidity 28    
Precipitation  
Precipitation 0.00 in - - ()
Sea Level Pressure  
Sea Level Pressure 29.95 in    
Wind  
Wind Speed 5 mph (WNW)    
Max Wind Speed 14 mph    
Max Gust Speed 17 mph    
Visibility 10 miles    
Events Rain    
Averages and records for this station are not official NWS values.
T = Trace of Precipitation, MM = Missing Value Source: NWS Daily Summary

Daily Weather History Graph

Daily Weather History Graph

Search for Another Location

Airport or City:

Trip Planner

Search our weather history database for the weather conditions in past years. The results will help you decide how hot, cold, wet, or windy it might be!

Date:

Astronomy

May. 16, 2014 Rise Set
Actual Time 6:15 AM EDT 8:17 PM EDT
Civil Twilight 5:47 AM EDT 8:46 PM EDT
Nautical Twilight 5:13 AM EDT 9:20 PM EDT
Astronomical Twilight 4:36 AM EDT 9:57 PM EDT
Moon 10:23 PM EDT (5/16) 7:56 AM EDT (5/16)
Length of Visible Light 14h 58m
Length of Day
14h 01m
Waning Gibbous, 95% of the Moon is Illuminated
May 16
Waning Gibbous
May 21
Last Quarter
May 28
New
Jun 5
First Quarter
Jun 13
Full

Hourly Weather History & Observations

Time (EDT) Temp. Dew Point Humidity Pressure Visibility Wind Dir Wind Speed Gust Speed Precip Events Conditions
12:15 AM 67.1 °F 66.2 °F 97% 29.87 in 10.0 mi Calm Calm - N/A   Overcast
12:35 AM 67.3 °F 66.4 °F 97% 29.87 in 10.0 mi West 3.5 mph - N/A   Overcast
12:55 AM 64.0 °F 62.1 °F 93% 29.88 in 10.0 mi NW 13.8 mph - N/A Rain Light Rain
1:15 AM 62.6 °F 58.5 °F 86% 29.88 in 10.0 mi NW 13.8 mph - N/A   Overcast
1:35 AM 62.1 °F 57.9 °F 86% 29.88 in 10.0 mi NNW 6.9 mph - N/A   Overcast
2:15 AM 61.3 °F 58.5 °F 90% 29.88 in 10.0 mi Calm Calm - N/A   Overcast
2:35 AM 61.7 °F 58.1 °F 88% 29.87 in 10.0 mi NW 5.8 mph - N/A   Overcast
2:55 AM 61.3 °F 58.1 °F 89% 29.87 in 10.0 mi NW 4.6 mph - N/A   Overcast
3:15 AM 61.2 °F 57.2 °F 87% 29.87 in 10.0 mi NNW 5.8 mph - N/A   Overcast
3:35 AM 60.6 °F 56.1 °F 85% 29.88 in 10.0 mi WNW 8.1 mph - N/A   Overcast
3:55 AM 59.9 °F 54.9 °F 83% 29.87 in 10.0 mi NW 6.9 mph - N/A   Overcast
4:15 AM 59.4 °F 54.5 °F 84% 29.88 in 10.0 mi NW 8.1 mph - N/A   Overcast
4:35 AM 59.0 °F 54.1 °F 84% 29.88 in 10.0 mi NNW 8.1 mph - N/A   Overcast
4:55 AM 59.0 °F 53.8 °F 83% 29.89 in 10.0 mi NNW 5.8 mph - N/A   Overcast
5:15 AM 57.4 °F 53.2 °F 86% 29.90 in 10.0 mi NNW 3.5 mph - N/A   Scattered Clouds
5:35 AM 57.2 °F 53.1 °F 86% 29.89 in 10.0 mi North 6.9 mph - N/A   Mostly Cloudy
5:55 AM 56.1 °F 53.1 °F 89% 29.89 in 10.0 mi Calm Calm - N/A   Scattered Clouds
6:15 AM 55.6 °F 52.9 °F 91% 29.90 in 10.0 mi NW 3.5 mph - N/A   Scattered Clouds
6:35 AM 56.3 °F 52.2 °F 86% 29.91 in 10.0 mi WNW 4.6 mph - N/A   Mostly Cloudy
6:55 AM 56.3 °F 51.8 °F 85% 29.92 in 10.0 mi WNW 3.5 mph - N/A   Mostly Cloudy
7:15 AM 57.0 °F 52.2 °F 84% 29.93 in 10.0 mi Calm Calm - N/A   Scattered Clouds
7:35 AM 57.4 °F 52.3 °F 83% 29.95 in 10.0 mi WNW 4.6 mph - N/A   Scattered Clouds
7:55 AM 58.1 °F 51.1 °F 77% 29.96 in 10.0 mi NW 5.8 mph - N/A   Scattered Clouds
8:15 AM 59.0 °F 50.2 °F 73% 29.96 in 10.0 mi NW 8.1 mph - N/A   Scattered Clouds
8:35 AM 59.9 °F 49.1 °F 67% 29.96 in 10.0 mi NNW 8.1 mph - N/A   Clear
8:55 AM 60.4 °F 49.6 °F 68% 29.96 in 10.0 mi NNW 8.1 mph - N/A   Clear
9:15 AM 61.2 °F 48.7 °F 64% 29.96 in 10.0 mi NNW 8.1 mph - N/A   Clear
9:35 AM 62.1 °F 49.3 °F 63% 29.96 in 10.0 mi NNW 6.9 mph - N/A   Clear
9:55 AM 62.4 °F 48.6 °F 60% 29.96 in 10.0 mi WNW 4.6 mph - N/A   Clear
10:15 AM 62.8 °F 47.5 °F 57% 29.96 in 10.0 mi WNW 4.6 mph - N/A   Clear
10:35 AM 63.5 °F 46.0 °F 53% 29.98 in 10.0 mi WNW 9.2 mph - N/A   Clear
10:55 AM 64.4 °F 45.3 °F 50% 29.98 in 10.0 mi WNW 4.6 mph - N/A   Clear
11:15 AM 65.1 °F 45.7 °F 49% 29.98 in 10.0 mi WNW 5.8 mph - N/A   Clear
11:35 AM 65.5 °F 44.8 °F 47% 29.98 in 10.0 mi WNW 5.8 mph - N/A   Clear
11:55 AM 65.8 °F 45.0 °F 47% 29.98 in 10.0 mi WNW 4.6 mph - N/A   Clear
12:15 PM 67.5 °F 47.3 °F 48% 29.98 in 10.0 mi West 4.6 mph - N/A   Scattered Clouds
12:35 PM 67.8 °F 47.1 °F 47% 29.98 in 10.0 mi West 5.8 mph - N/A   Mostly Cloudy
12:55 PM 68.0 °F 45.3 °F 44% 29.97 in 10.0 mi WNW 8.1 mph - N/A   Scattered Clouds
1:15 PM 68.7 °F 44.2 °F 41% 29.97 in 10.0 mi West 4.6 mph - N/A   Clear
1:35 PM 69.3 °F 43.0 °F 39% 29.96 in 10.0 mi SW 3.5 mph - N/A   Clear
1:55 PM 70.2 °F 43.7 °F 38% 29.96 in 10.0 mi WSW 6.9 mph - N/A   Clear
2:15 PM 70.5 °F 43.0 °F 37% 29.95 in 10.0 mi WNW 5.8 mph - N/A   Clear
2:35 PM 70.3 °F 41.4 °F 35% 29.95 in 10.0 mi WSW 4.6 mph - N/A   Clear
2:55 PM 71.2 °F 41.5 °F 34% 29.95 in 10.0 mi WNW 5.8 mph - N/A   Clear
3:15 PM 71.6 °F 41.4 °F 33% 29.94 in 10.0 mi West 6.9 mph - N/A   Clear
3:35 PM 72.1 °F 41.2 °F 33% 29.94 in 10.0 mi SW 6.9 mph - N/A   Clear
3:55 PM 72.5 °F 40.6 °F 32% 29.94 in 10.0 mi West 5.8 mph - N/A   Clear
4:15 PM 72.9 °F 41.2 °F 32% 29.94 in 10.0 mi West 11.5 mph 17.3 mph N/A   Scattered Clouds
4:35 PM 72.3 °F 38.5 °F 29% 29.93 in 10.0 mi SW 6.9 mph - N/A   Scattered Clouds
4:55 PM 72.5 °F 41.2 °F 32% 29.93 in 10.0 mi West 6.9 mph - N/A   Scattered Clouds
5:15 PM 72.9 °F 38.3 °F 29% 29.93 in 10.0 mi SW 5.8 mph - N/A   Clear
5:35 PM 72.5 °F 37.9 °F 28% 29.93 in 10.0 mi WSW 8.1 mph - N/A   Clear
5:55 PM 72.3 °F 37.9 °F 29% 29.94 in 10.0 mi SW 9.2 mph - N/A   Clear
6:15 PM 71.6 °F 38.8 °F 30% 29.94 in 10.0 mi WSW 3.5 mph - N/A   Clear
6:35 PM 70.5 °F 41.2 °F 35% 29.95 in 10.0 mi SW 4.6 mph - N/A   Clear
6:55 PM 68.5 °F 43.5 °F 40% 29.95 in 10.0 mi SSW 3.5 mph - N/A   Mostly Cloudy
7:15 PM 67.6 °F 44.8 °F 44% 29.96 in 10.0 mi Calm Calm - N/A   Overcast
7:35 PM 67.5 °F 45.0 °F 44% 29.97 in 10.0 mi SSW 3.5 mph - N/A   Overcast
7:55 PM 67.3 °F 44.1 °F 43% 29.98 in 10.0 mi WNW 8.1 mph - N/A   Mostly Cloudy
8:15 PM 64.8 °F 44.4 °F 48% 30.00 in 10.0 mi WNW 3.5 mph - N/A   Scattered Clouds
8:35 PM 63.5 °F 44.6 °F 50% 30.01 in 10.0 mi Calm Calm - N/A   Clear
8:55 PM 62.1 °F 45.9 °F 55% 30.02 in 10.0 mi Calm Calm - N/A   Clear
9:15 PM 60.6 °F 45.7 °F 58% 30.03 in 10.0 mi Calm Calm - N/A   Clear
9:35 PM 59.9 °F 46.0 °F 60% 30.04 in 10.0 mi Calm Calm - N/A   Clear
9:55 PM 58.1 °F 47.5 °F 68% 30.04 in 10.0 mi Calm Calm - N/A   Clear
10:15 PM 56.7 °F 49.5 °F 77% 30.05 in 10.0 mi Calm Calm - N/A   Clear
10:35 PM 55.6 °F 49.6 °F 80% 30.06 in 10.0 mi Calm Calm - N/A   Clear
10:55 PM 55.6 °F 48.6 °F 77% 30.06 in 10.0 mi Calm Calm - N/A   Clear
11:15 PM 54.5 °F 48.6 °F 80% 30.08 in 10.0 mi Calm Calm - N/A   Clear
11:35 PM 53.1 °F 48.7 °F 85% 30.10 in 10.0 mi NW 8.1 mph - N/A   Scattered Clouds
11:55 PM 55.2 °F 47.3 °F 75% 30.10 in 10.0 mi WNW 5.8 mph - N/A   Scattered Clouds